contact:dominique.lefevre@mio.osupytheas.fr, maurice.libes@osupytheas.fr, didier.mallarino@osupytheas.fr
Project:EMSO http://www.emso-fr.org/EMSO-France
Depth: 2436.0 m
Title:EMSO Ligure Ouest : Data MII capteur MICROCAT
DateTime_Computer,Latitude,Longitude,Temperature,Conductivity,Pressure,DateTime_Instrument
DateTime_Computer,Latitude,Longitude,degC,S m-1,dbar,DateTime_Instrument
2020-11-02T00:02:34Z,42.805,6.029,13.2988,4.60009,2470.11,2020-11-02T02:03:29Z
2020-11-02T00:05:37Z,42.805,6.029,13.2986,4.60009,2470.11,2020-11-02T02:06:32Z
2020-11-02T00:08:40Z,42.805,6.029,13.2985,4.60016,2470.1,2020-11-02T02:09:35Z
2020-11-02T00:11:43Z,42.805,6.029,13.2982,4.60004,2470.133,2020-11-02T02:12:39Z
2020-11-02T00:14:46Z,42.805,6.029,13.2989,4.60017,2470.11,2020-11-02T02:15:42Z
2020-11-02T00:17:49Z,42.805,6.029,13.2986,4.60010,2470.087,2020-11-02T02:18:45Z
2020-11-02T00:20:52Z,42.805,6.029,13.2993,4.60008,2470.124,2020-11-02T02:21:48Z
2020-11-02T00:23:56Z,42.805,6.029,13.2990,4.60011,2470.133,2020-11-02T02:24:51Z
2020-11-02T00:26:59Z,42.805,6.029,13.2993,4.60029,2470.133,2020-11-02T02:27:54Z
2020-11-02T00:30:02Z,42.805,6.029,13.2993,4.60037,2470.147,2020-11-02T02:30:57Z
2020-11-02T00:33:05Z,42.805,6.029,13.3005,4.60029,2470.087,2020-11-02T02:34:00Z
2020-11-02T00:36:08Z,42.805,6.029,13.2999,4.60035,2470.087,2020-11-02T02:37:04Z
2020-11-02T00:39:11Z,42.805,6.029,13.3000,4.60040,2470.124,2020-11-02T02:40:07Z
2020-11-02T00:42:14Z,42.805,6.029,13.2994,4.60029,2470.077,2020-11-02T02:43:10Z
2020-11-02T00:45:17Z,42.805,6.029,13.3006,4.60024,2470.087,2020-11-02T02:46:13Z
2020-11-02T00:48:21Z,42.805,6.029,13.2989,4.60030,2470.087,2020-11-02T02:49:16Z
2020-11-02T00:51:24Z,42.805,6.029,13.2992,4.60016,2470.087,2020-11-02T02:52:19Z
2020-11-02T00:54:27Z,42.805,6.029,13.2983,4.60011,2470.11,2020-11-02T02:55:22Z
2020-11-02T00:57:30Z,42.805,6.029,13.2993,4.60019,2470.147,2020-11-02T02:58:25Z
2020-11-02T01:00:33Z,42.805,6.029,13.2982,4.60025,2470.087,2020-11-02T03:01:29Z
2020-11-02T01:03:36Z,42.805,6.029,13.2981,4.60021,2470.087,2020-11-02T03:04:32Z
2020-11-02T01:06:39Z,42.805,6.029,13.2990,4.60014,2470.1,2020-11-02T03:07:35Z
2020-11-02T01:09:42Z,42.805,6.029,13.2983,4.60006,2470.087,2020-11-02T03:10:38Z
2020-11-02T01:12:46Z,42.805,6.029,13.2989,4.60006,2470.087,2020-11-02T03:13:41Z
2020-11-02T01:15:49Z,42.805,6.029,13.2992,4.60024,2470.077,2020-11-02T03:16:44Z
2020-11-02T01:18:52Z,42.805,6.029,13.2990,4.60034,2470.087,2020-11-02T03:19:47Z
2020-11-02T01:21:55Z,42.805,6.029,13.3009,4.60047,2470.063,2020-11-02T03:22:50Z
2020-11-02T01:24:58Z,42.805,6.029,13.2998,4.60035,2470.087,2020-11-02T03:25:53Z
2020-11-02T01:28:01Z,42.805,6.029,13.2984,4.60027,2470.063,2020-11-02T03:28:57Z
2020-11-02T01:31:04Z,42.805,6.029,13.2983,4.60017,2470.077,2020-11-02T03:32:00Z
2020-11-02T01:34:07Z,42.805,6.029,13.2990,4.60009,2470.087,2020-11-02T03:35:03Z
2020-11-02T01:37:10Z,42.805,6.029,13.2986,4.60000,2470.11,2020-11-02T03:38:06Z
2020-11-02T01:40:14Z,42.805,6.029,13.2984,4.60028,2470.087,2020-11-02T03:41:09Z
2020-11-02T01:43:17Z,42.805,6.029,13.2998,4.60032,2470.04,2020-11-02T03:44:12Z
2020-11-02T01:46:20Z,42.805,6.029,13.3002,4.60036,2470.1,2020-11-02T03:47:15Z
2020-11-02T01:49:23Z,42.805,6.029,13.2998,4.60026,2470.1,2020-11-02T03:50:18Z
2020-11-02T01:52:26Z,42.805,6.029,13.2983,4.60002,2470.087,2020-11-02T03:53:22Z
2020-11-02T01:55:29Z,42.805,6.029,13.2983,4.60009,2470.063,2020-11-02T03:56:25Z
2020-11-02T01:58:32Z,42.805,6.029,13.2990,4.60033,2470.077,2020-11-02T03:59:28Z
2020-11-02T02:01:35Z,42.805,6.029,13.2983,4.60014,2470.1,2020-11-02T04:02:31Z
2020-11-02T02:04:39Z,42.805,6.029,13.2986,4.60012,2470.087,2020-11-02T04:05:34Z
2020-11-02T02:07:42Z,42.805,6.029,13.2983,4.59992,2470.1,2020-11-02T04:08:37Z
2020-11-02T02:10:45Z,42.805,6.029,13.2979,4.60014,2470.11,2020-11-02T04:11:40Z
2020-11-02T02:13:48Z,42.805,6.029,13.2992,4.60001,2470.087,2020-11-02T04:14:43Z
2020-11-02T02:16:51Z,42.805,6.029,13.2987,4.60008,2470.087,2020-11-02T04:17:46Z
2020-11-02T02:19:54Z,42.805,6.029,13.2981,4.59999,2470.124,2020-11-02T04:20:50Z
2020-11-02T02:22:57Z,42.805,6.029,13.2988,4.59998,2470.11,2020-11-02T04:23:53Z
2020-11-02T02:26:00Z,42.805,6.029,13.2988,4.60003,2470.1,2020-11-02T04:26:56Z
2020-11-02T02:29:03Z,42.805,6.029,13.2991,4.60000,2470.077,2020-11-02T04:29:59Z
2020-11-02T02:32:07Z,42.805,6.029,13.2988,4.60001,2470.063,2020-11-02T04:33:02Z
2020-11-02T02:35:10Z,42.805,6.029,13.2989,4.60030,2470.124,2020-11-02T04:36:05Z
2020-11-02T02:38:13Z,42.805,6.029,13.2983,4.60001,2470.1,2020-11-02T04:39:08Z
2020-11-02T02:41:16Z,42.805,6.029,13.2990,4.59997,2470.124,2020-11-02T04:42:11Z
2020-11-02T02:44:19Z,42.805,6.029,13.2992,4.59999,2470.124,2020-11-02T04:45:15Z
2020-11-02T02:47:22Z,42.805,6.029,13.2982,4.59999,2470.124,2020-11-02T04:48:18Z
2020-11-02T02:50:25Z,42.805,6.029,13.2990,4.60009,2470.077,2020-11-02T04:51:21Z
2020-11-02T02:53:28Z,42.805,6.029,13.2979,4.59995,2470.077,2020-11-02T04:54:24Z
2020-11-02T02:56:32Z,42.805,6.029,13.2981,4.60006,2470.087,2020-11-02T04:57:27Z
2020-11-02T02:59:35Z,42.805,6.029,13.2983,4.60002,2470.087,2020-11-02T05:00:30Z
2020-11-02T03:02:38Z,42.805,6.029,13.2985,4.60002,2470.11,2020-11-02T05:03:33Z
2020-11-02T03:05:41Z,42.805,6.029,13.2980,4.59994,2470.077,2020-11-02T05:06:36Z
2020-11-02T03:08:44Z,42.805,6.029,13.2984,4.59998,2470.1,2020-11-02T05:09:39Z
2020-11-02T03:11:47Z,42.805,6.029,13.2986,4.59995,2470.11,2020-11-02T05:12:43Z
2020-11-02T03:14:50Z,42.805,6.029,13.2980,4.59992,2470.087,2020-11-02T05:15:46Z
2020-11-02T03:17:53Z,42.805,6.029,13.2986,4.59990,2470.124,2020-11-02T05:18:49Z
2020-11-02T03:20:56Z,42.805,6.029,13.2983,4.59999,2470.1,2020-11-02T05:21:52Z
2020-11-02T03:24:00Z,42.805,6.029,13.2986,4.60015,2470.147,2020-11-02T05:24:55Z
2020-11-02T03:27:03Z,42.805,6.029,13.2991,4.60013,2470.063,2020-11-02T05:27:58Z
2020-11-02T03:30:06Z,42.805,6.029,13.2986,4.59996,2470.11,2020-11-02T05:31:01Z
2020-11-02T03:33:09Z,42.805,6.029,13.2984,4.60005,2470.073,2020-11-02T05:34:04Z
2020-11-02T03:36:12Z,42.805,6.029,13.2994,4.60008,2470.124,2020-11-02T05:37:08Z
2020-11-02T03:39:15Z,42.805,6.029,13.2991,4.60018,2470.077,2020-11-02T05:40:11Z
2020-11-02T03:42:18Z,42.805,6.029,13.2984,4.60014,2470.1,2020-11-02T05:43:14Z
2020-11-02T03:45:21Z,42.805,6.029,13.2992,4.60009,2470.11,2020-11-02T05:46:17Z
2020-11-02T03:48:25Z,42.805,6.029,13.2984,4.59995,2470.133,2020-11-02T05:49:20Z
2020-11-02T03:51:28Z,42.805,6.029,13.2986,4.60011,2470.11,2020-11-02T05:52:23Z
2020-11-02T03:54:31Z,42.805,6.029,13.2986,4.60012,2470.124,2020-11-02T05:55:26Z
2020-11-02T03:57:34Z,42.805,6.029,13.2984,4.60007,2470.11,2020-11-02T05:58:29Z
2020-11-02T04:00:37Z,42.805,6.029,13.2986,4.59998,2470.1,2020-11-02T06:01:32Z
2020-11-02T04:03:40Z,42.805,6.029,13.2990,4.60015,2470.133,2020-11-02T06:04:36Z
2020-11-02T04:06:43Z,42.805,6.029,13.2986,4.60002,2470.11,2020-11-02T06:07:39Z
2020-11-02T04:09:46Z,42.805,6.029,13.2982,4.60005,2470.124,2020-11-02T06:10:42Z
2020-11-02T04:12:49Z,42.805,6.029,13.2980,4.60004,2470.133,2020-11-02T06:13:45Z
2020-11-02T04:15:53Z,42.805,6.029,13.2983,4.60003,2470.133,2020-11-02T06:16:48Z
2020-11-02T04:18:56Z,42.805,6.029,13.2993,4.60003,2470.171,2020-11-02T06:19:51Z
2020-11-02T04:21:59Z,42.805,6.029,13.2986,4.60015,2470.143,2020-11-02T06:22:54Z
2020-11-02T04:25:02Z,42.805,6.029,13.2995,4.60021,2470.133,2020-11-02T06:25:57Z
2020-11-02T04:28:05Z,42.805,6.029,13.2998,4.60021,2470.156,2020-11-02T06:29:01Z
2020-11-02T04:31:08Z,42.805,6.029,13.2986,4.60025,2470.119,2020-11-02T06:32:04Z
2020-11-02T04:34:11Z,42.805,6.029,13.2993,4.60014,2470.11,2020-11-02T06:35:07Z
2020-11-02T04:37:14Z,42.805,6.029,13.2990,4.60021,2470.124,2020-11-02T06:38:10Z
2020-11-02T04:40:18Z,42.805,6.029,13.3003,4.60020,2470.156,2020-11-02T06:41:13Z
2020-11-02T04:43:21Z,42.805,6.029,13.2985,4.60027,2470.171,2020-11-02T06:44:16Z
2020-11-02T04:46:24Z,42.805,6.029,13.2980,4.60001,2470.133,2020-11-02T06:47:19Z
2020-11-02T04:49:27Z,42.805,6.029,13.2979,4.60009,2470.18,2020-11-02T06:50:22Z
2020-11-02T04:52:30Z,42.805,6.029,13.2988,4.60025,2470.171,2020-11-02T06:53:26Z
2020-11-02T04:55:33Z,42.805,6.029,13.2984,4.60006,2470.18,2020-11-02T06:56:29Z
2020-11-02T04:58:36Z,42.805,6.029,13.2985,4.60014,2470.171,2020-11-02T06:59:32Z
2020-11-02T05:01:39Z,42.805,6.029,13.2995,4.60026,2470.147,2020-11-02T07:02:35Z
2020-11-02T05:04:42Z,42.805,6.029,13.2997,4.60020,2470.156,2020-11-02T07:05:38Z
2020-11-02T05:07:46Z,42.805,6.029,13.2994,4.60026,2470.217,2020-11-02T07:08:41Z
2020-11-02T05:10:49Z,42.805,6.029,13.2990,4.60026,2470.18,2020-11-02T07:11:44Z
2020-11-02T05:13:52Z,42.805,6.029,13.2987,4.60010,2470.203,2020-11-02T07:14:47Z
2020-11-02T05:16:55Z,42.805,6.029,13.2983,4.59999,2470.156,2020-11-02T07:17:50Z
2020-11-02T05:19:58Z,42.805,6.029,13.2983,4.59996,2470.194,2020-11-02T07:20:54Z
2020-11-02T05:23:01Z,42.805,6.029,13.2990,4.60013,2470.194,2020-11-02T07:23:57Z
2020-11-02T05:26:04Z,42.805,6.029,13.2985,4.60004,2470.18,2020-11-02T07:27:00Z
2020-11-02T05:29:07Z,42.805,6.029,13.2983,4.60019,2470.18,2020-11-02T07:30:03Z
2020-11-02T05:32:11Z,42.805,6.029,13.2993,4.60014,2470.18,2020-11-02T07:33:06Z
2020-11-02T05:35:14Z,42.805,6.029,13.2996,4.60024,2470.18,2020-11-02T07:36:09Z
2020-11-02T05:38:17Z,42.805,6.029,13.2982,4.60013,2470.203,2020-11-02T07:39:12Z
2020-11-02T05:41:20Z,42.805,6.029,13.2981,4.59999,2470.217,2020-11-02T07:42:15Z
2020-11-02T05:44:23Z,42.805,6.029,13.2983,4.59996,2470.171,2020-11-02T07:45:18Z
2020-11-02T05:47:26Z,42.805,6.029,13.2990,4.60004,2470.203,2020-11-02T07:48:22Z
2020-11-02T05:50:29Z,42.805,6.029,13.3001,4.60023,2470.24,2020-11-02T07:51:25Z
2020-11-02T05:53:32Z,42.805,6.029,13.2987,4.60002,2470.227,2020-11-02T07:54:28Z
2020-11-02T05:56:35Z,42.805,6.029,13.3006,4.60003,2470.24,2020-11-02T07:57:31Z
2020-11-02T05:59:39Z,42.805,6.029,13.2990,4.60008,2470.264,2020-11-02T08:00:34Z
2020-11-02T06:02:42Z,42.805,6.029,13.2999,4.60008,2470.203,2020-11-02T08:03:37Z
2020-11-02T06:05:45Z,42.805,6.029,13.2992,4.60021,2470.25,2020-11-02T08:06:40Z
2020-11-02T06:08:48Z,42.805,6.029,13.2980,4.60001,2470.24,2020-11-02T08:09:43Z
2020-11-02T06:11:51Z,42.805,6.029,13.2992,4.60005,2470.227,2020-11-02T08:12:47Z
2020-11-02T06:14:54Z,42.805,6.029,13.2983,4.60018,2470.25,2020-11-02T08:15:50Z
2020-11-02T06:17:57Z,42.805,6.029,13.2987,4.60009,2470.264,2020-11-02T08:18:53Z
2020-11-02T06:21:00Z,42.805,6.029,13.2989,4.60008,2470.25,2020-11-02T08:21:56Z
2020-11-02T06:24:04Z,42.805,6.029,13.2999,4.60016,2470.264,2020-11-02T08:24:59Z
2020-11-02T06:27:07Z,42.805,6.029,13.2990,4.59999,2470.24,2020-11-02T08:28:02Z
2020-11-02T06:30:10Z,42.805,6.029,13.2980,4.60026,2470.25,2020-11-02T08:31:05Z
2020-11-02T06:33:13Z,42.805,6.029,13.2996,4.60024,2470.273,2020-11-02T08:34:08Z
2020-11-02T06:36:16Z,42.805,6.029,13.2998,4.60023,2470.25,2020-11-02T08:37:11Z
2020-11-02T06:39:19Z,42.805,6.029,13.2999,4.60042,2470.25,2020-11-02T08:40:15Z
2020-11-02T06:42:22Z,42.805,6.029,13.2997,4.60026,2470.264,2020-11-02T08:43:18Z
2020-11-02T06:45:25Z,42.805,6.029,13.3008,4.60026,2470.25,2020-11-02T08:46:21Z
2020-11-02T06:48:28Z,42.805,6.029,13.3010,4.60017,2470.25,2020-11-02T08:49:24Z
2020-11-02T06:51:32Z,42.805,6.029,13.2993,4.60029,2470.273,2020-11-02T08:52:27Z
2020-11-02T06:54:35Z,42.805,6.029,13.3001,4.60024,2470.297,2020-11-02T08:55:30Z
2020-11-02T06:57:38Z,42.805,6.029,13.2995,4.60021,2470.264,2020-11-02T08:58:33Z
2020-11-02T07:00:41Z,42.805,6.029,13.2991,4.60019,2470.32,2020-11-02T09:01:36Z
2020-11-02T07:03:44Z,42.805,6.029,13.2981,4.60003,2470.287,2020-11-02T09:04:40Z
2020-11-02T07:06:47Z,42.805,6.029,13.2984,4.59999,2470.25,2020-11-02T09:07:43Z
2020-11-02T07:09:50Z,42.805,6.029,13.2993,4.60025,2470.25,2020-11-02T09:10:46Z
2020-11-02T07:12:53Z,42.805,6.029,13.2995,4.60019,2470.25,2020-11-02T09:13:49Z
2020-11-02T07:15:57Z,42.805,6.029,13.2991,4.60021,2470.273,2020-11-02T09:16:52Z
2020-11-02T07:19:00Z,42.805,6.029,13.3004,4.60030,2470.273,2020-11-02T09:19:55Z
2020-11-02T07:22:03Z,42.805,6.029,13.2988,4.60026,2470.32,2020-11-02T09:22:58Z
2020-11-02T07:25:06Z,42.805,6.029,13.3006,4.60006,2470.287,2020-11-02T09:26:01Z
2020-11-02T07:28:09Z,42.805,6.029,13.3008,4.60026,2470.31,2020-11-02T09:29:04Z
2020-11-02T07:31:12Z,42.805,6.029,13.3001,4.60033,2470.297,2020-11-02T09:32:08Z
2020-11-02T07:34:15Z,42.805,6.029,13.3000,4.60026,2470.297,2020-11-02T09:35:11Z
2020-11-02T07:37:18Z,42.805,6.029,13.2982,4.60003,2470.297,2020-11-02T09:38:14Z
2020-11-02T07:40:21Z,42.805,6.029,13.2990,4.60031,2470.297,2020-11-02T09:41:17Z
2020-11-02T07:43:25Z,42.805,6.029,13.3001,4.60025,2470.297,2020-11-02T09:44:20Z
2020-11-02T07:46:28Z,42.805,6.029,13.2997,4.60019,2470.334,2020-11-02T09:47:23Z
2020-11-02T07:49:31Z,42.805,6.029,13.3012,4.60028,2470.31,2020-11-02T09:50:26Z
2020-11-02T07:52:34Z,42.805,6.029,13.3002,4.60036,2470.31,2020-11-02T09:53:29Z
2020-11-02T07:55:37Z,42.805,6.029,13.2999,4.60027,2470.297,2020-11-02T09:56:33Z
2020-11-02T07:58:40Z,42.805,6.029,13.3005,4.60041,2470.334,2020-11-02T09:59:36Z
2020-11-02T08:01:43Z,42.805,6.029,13.3011,4.60032,2470.287,2020-11-02T10:02:39Z
2020-11-02T08:04:46Z,42.805,6.029,13.3015,4.60037,2470.287,2020-11-02T10:05:42Z
2020-11-02T08:07:50Z,42.805,6.029,13.2997,4.60036,2470.334,2020-11-02T10:08:45Z
2020-11-02T08:10:53Z,42.805,6.029,13.2997,4.60009,2470.287,2020-11-02T10:11:48Z
2020-11-02T08:13:56Z,42.805,6.029,13.2990,4.60042,2470.297,2020-11-02T10:14:51Z
2020-11-02T08:16:59Z,42.805,6.029,13.3006,4.60026,2470.297,2020-11-02T10:17:54Z
2020-11-02T08:20:02Z,42.805,6.029,13.3009,4.60037,2470.334,2020-11-02T10:20:58Z
2020-11-02T08:23:05Z,42.805,6.029,13.2995,4.60031,2470.334,2020-11-02T10:24:01Z
2020-11-02T08:26:08Z,42.805,6.029,13.3009,4.60031,2470.31,2020-11-02T10:27:04Z
2020-11-02T08:29:11Z,42.805,6.029,13.2996,4.60024,2470.287,2020-11-02T10:30:07Z
2020-11-02T08:32:15Z,42.805,6.029,13.2991,4.60028,2470.31,2020-11-02T10:33:10Z
2020-11-02T08:35:18Z,42.805,6.029,13.3000,4.60035,2470.32,2020-11-02T10:36:13Z
2020-11-02T08:38:21Z,42.805,6.029,13.2989,4.60025,2470.273,2020-11-02T10:39:16Z
2020-11-02T08:41:24Z,42.805,6.029,13.3007,4.60024,2470.32,2020-11-02T10:42:19Z
2020-11-02T08:44:27Z,42.805,6.029,13.3000,4.60028,2470.32,2020-11-02T10:45:22Z
2020-11-02T08:47:30Z,42.805,6.029,13.3001,4.60031,2470.287,2020-11-02T10:48:26Z
2020-11-02T08:50:33Z,42.805,6.029,13.3016,4.60033,2470.273,2020-11-02T10:51:29Z
2020-11-02T08:53:36Z,42.805,6.029,13.2983,4.60016,2470.297,2020-11-02T10:54:32Z
2020-11-02T08:56:40Z,42.805,6.029,13.2983,4.60023,2470.287,2020-11-02T10:57:35Z
2020-11-02T08:59:43Z,42.805,6.029,13.3000,4.60029,2470.287,2020-11-02T11:00:38Z
2020-11-02T09:02:46Z,42.805,6.029,13.2979,4.60030,2470.297,2020-11-02T11:03:41Z
2020-11-02T09:05:49Z,42.805,6.029,13.2997,4.60031,2470.273,2020-11-02T11:06:44Z
2020-11-02T09:08:52Z,42.805,6.029,13.2997,4.60016,2470.31,2020-11-02T11:09:47Z
2020-11-02T09:11:55Z,42.805,6.029,13.2994,4.60031,2470.297,2020-11-02T11:12:51Z
2020-11-02T09:14:58Z,42.805,6.029,13.3009,4.60045,2470.297,2020-11-02T11:15:54Z
2020-11-02T09:18:01Z,42.805,6.029,13.3009,4.60034,2470.31,2020-11-02T11:18:57Z
2020-11-02T09:21:04Z,42.805,6.029,13.3006,4.60031,2470.287,2020-11-02T11:22:00Z
2020-11-02T09:24:08Z,42.805,6.029,13.3001,4.60038,2470.31,2020-11-02T11:25:03Z
2020-11-02T09:27:11Z,42.805,6.029,13.3008,4.60040,2470.264,2020-11-02T11:28:06Z
2020-11-02T09:30:14Z,42.805,6.029,13.2999,4.60036,2470.273,2020-11-02T11:31:09Z
2020-11-02T09:33:17Z,42.805,6.029,13.2993,4.60035,2470.273,2020-11-02T11:34:12Z
2020-11-02T09:36:20Z,42.805,6.029,13.2994,4.60020,2470.334,2020-11-02T11:37:16Z
2020-11-02T09:39:23Z,42.805,6.029,13.2999,4.60019,2470.25,2020-11-02T11:40:19Z
2020-11-02T09:42:26Z,42.805,6.029,13.3010,4.60027,2470.264,2020-11-02T11:43:22Z
2020-11-02T09:45:29Z,42.805,6.029,13.2994,4.60029,2470.273,2020-11-02T11:46:25Z
2020-11-02T09:48:33Z,42.805,6.029,13.3005,4.60029,2470.297,2020-11-02T11:49:28Z
2020-11-02T09:51:36Z,42.805,6.029,13.2996,4.60037,2470.273,2020-11-02T11:52:31Z
2020-11-02T09:54:39Z,42.805,6.029,13.2996,4.60021,2470.297,2020-11-02T11:55:34Z
2020-11-02T09:57:42Z,42.805,6.029,13.3007,4.60029,2470.24,2020-11-02T11:58:37Z
2020-11-02T10:00:45Z,42.805,6.029,13.3004,4.60006,2470.264,2020-11-02T12:01:41Z
2020-11-02T10:03:48Z,42.805,6.029,13.2990,4.60017,2470.287,2020-11-02T12:04:44Z
2020-11-02T10:06:51Z,42.805,6.029,13.2979,4.59999,2470.273,2020-11-02T12:07:47Z
2020-11-02T10:09:54Z,42.805,6.029,13.2991,4.60016,2470.287,2020-11-02T12:10:50Z
2020-11-02T10:12:58Z,42.805,6.029,13.2990,4.59999,2470.287,2020-11-02T12:13:53Z
2020-11-02T10:16:01Z,42.805,6.029,13.3002,4.60036,2470.25,2020-11-02T12:16:56Z
2020-11-02T10:19:04Z,42.805,6.029,13.2994,4.60026,2470.264,2020-11-02T12:19:59Z
2020-11-02T10:22:07Z,42.805,6.029,13.2988,4.60016,2470.25,2020-11-02T12:23:02Z
2020-11-02T10:25:10Z,42.805,6.029,13.2995,4.60029,2470.24,2020-11-02T12:26:06Z
2020-11-02T10:28:13Z,42.805,6.029,13.3014,4.60025,2470.25,2020-11-02T12:29:09Z
2020-11-02T10:31:16Z,42.805,6.029,13.3015,4.60038,2470.25,2020-11-02T12:32:12Z
2020-11-02T10:34:19Z,42.805,6.029,13.3006,4.60032,2470.273,2020-11-02T12:35:15Z
2020-11-02T10:37:23Z,42.805,6.029,13.2996,4.60044,2470.203,2020-11-02T12:38:18Z
2020-11-02T10:40:26Z,42.805,6.029,13.2992,4.60054,2470.264,2020-11-02T12:41:21Z
2020-11-02T10:43:29Z,42.805,6.029,13.3000,4.60037,2470.264,2020-11-02T12:44:24Z
2020-11-02T10:46:32Z,42.805,6.029,13.2991,4.60031,2470.25,2020-11-02T12:47:27Z
2020-11-02T10:49:35Z,42.805,6.029,13.3001,4.60024,2470.264,2020-11-02T12:50:31Z
2020-11-02T10:52:38Z,42.805,6.029,13.2997,4.60040,2470.203,2020-11-02T12:53:34Z
2020-11-02T10:55:41Z,42.805,6.029,13.3028,4.60044,2470.24,2020-11-02T12:56:37Z
2020-11-02T10:58:44Z,42.805,6.029,13.2996,4.60020,2470.24,2020-11-02T12:59:40Z
2020-11-02T11:01:47Z,42.805,6.029,13.2996,4.60032,2470.227,2020-11-02T13:02:43Z
2020-11-02T11:04:51Z,42.805,6.029,13.2993,4.60028,2470.217,2020-11-02T13:05:46Z
2020-11-02T11:07:54Z,42.805,6.029,13.2989,4.60031,2470.203,2020-11-02T13:08:49Z
2020-11-02T11:10:57Z,42.805,6.029,13.2995,4.60023,2470.25,2020-11-02T13:11:52Z
2020-11-02T11:14:00Z,42.805,6.029,13.3002,4.60011,2470.227,2020-11-02T13:14:55Z
2020-11-02T11:17:03Z,42.805,6.029,13.3000,4.60019,2470.264,2020-11-02T13:17:59Z
2020-11-02T11:20:06Z,42.805,6.029,13.2998,4.60033,2470.227,2020-11-02T13:21:02Z
2020-11-02T11:23:09Z,42.805,6.029,13.3004,4.60034,2470.227,2020-11-02T13:24:05Z
2020-11-02T11:26:12Z,42.805,6.029,13.3013,4.60028,2470.18,2020-11-02T13:27:08Z
2020-11-02T11:29:16Z,42.805,6.029,13.2993,4.60033,2470.203,2020-11-02T13:30:11Z
2020-11-02T11:32:19Z,42.805,6.029,13.2999,4.60045,2470.25,2020-11-02T13:33:14Z
2020-11-02T11:35:22Z,42.805,6.029,13.3013,4.60024,2470.24,2020-11-02T13:36:17Z
2020-11-02T11:38:25Z,42.805,6.029,13.2999,4.60036,2470.203,2020-11-02T13:39:20Z
2020-11-02T11:41:28Z,42.805,6.029,13.3007,4.60039,2470.203,2020-11-02T13:42:24Z
2020-11-02T11:44:31Z,42.805,6.029,13.3017,4.60040,2470.217,2020-11-02T13:45:27Z
2020-11-02T11:47:34Z,42.805,6.029,13.3002,4.60051,2470.194,2020-11-02T13:48:30Z
2020-11-02T11:50:37Z,42.805,6.029,13.3023,4.60066,2470.18,2020-11-02T13:51:33Z
2020-11-02T11:53:41Z,42.805,6.029,13.3022,4.60027,2470.18,2020-11-02T13:54:36Z
2020-11-02T11:56:44Z,42.805,6.029,13.3015,4.60031,2470.217,2020-11-02T13:57:39Z
2020-11-02T11:59:47Z,42.805,6.029,13.3012,4.60078,2470.18,2020-11-02T14:00:42Z
2020-11-02T12:02:50Z,42.805,6.029,13.3028,4.60058,2470.217,2020-11-02T14:03:45Z
2020-11-02T12:05:53Z,42.805,6.029,13.3019,4.60046,2470.217,2020-11-02T14:06:49Z
2020-11-02T12:08:56Z,42.805,6.029,13.3016,4.60025,2470.194,2020-11-02T14:09:52Z
2020-11-02T12:11:59Z,42.805,6.029,13.2993,4.60031,2470.194,2020-11-02T14:12:55Z
2020-11-02T12:15:02Z,42.805,6.029,13.2988,4.60016,2470.18,2020-11-02T14:15:58Z
2020-11-02T12:18:06Z,42.805,6.029,13.3009,4.60053,2470.18,2020-11-02T14:19:01Z
2020-11-02T12:21:09Z,42.805,6.029,13.3009,4.60046,2470.156,2020-11-02T14:22:04Z
2020-11-02T12:24:12Z,42.805,6.029,13.3009,4.60031,2470.133,2020-11-02T14:25:07Z
2020-11-02T12:27:15Z,42.805,6.029,13.3026,4.60010,2470.147,2020-11-02T14:28:10Z
2020-11-02T12:30:18Z,42.805,6.029,13.3032,4.60059,2470.156,2020-11-02T14:31:14Z
2020-11-02T12:33:21Z,42.805,6.029,13.3032,4.60024,2470.156,2020-11-02T14:34:17Z
2020-11-02T12:36:24Z,42.805,6.029,13.2996,4.59993,2470.203,2020-11-02T14:37:20Z
2020-11-02T12:39:27Z,42.805,6.029,13.3002,4.60025,2470.171,2020-11-02T14:40:23Z
2020-11-02T12:42:30Z,42.805,6.029,13.2998,4.60049,2470.171,2020-11-02T14:43:26Z
2020-11-02T12:45:34Z,42.805,6.029,13.3000,4.60068,2470.171,2020-11-02T14:46:29Z
2020-11-02T12:48:37Z,42.805,6.029,13.3009,4.60041,2470.203,2020-11-02T14:49:32Z
2020-11-02T12:51:40Z,42.805,6.029,13.3000,4.60035,2470.194,2020-11-02T14:52:35Z
2020-11-02T12:54:43Z,42.805,6.029,13.3010,4.60050,2470.194,2020-11-02T14:55:39Z
2020-11-02T12:57:46Z,42.805,6.029,13.3006,4.60026,2470.171,2020-11-02T14:58:42Z
2020-11-02T13:00:50Z,42.805,6.029,13.2995,4.60043,2470.171,2020-11-02T15:01:45Z
2020-11-02T13:03:53Z,42.805,6.029,13.3022,4.60078,2470.18,2020-11-02T15:04:49Z
2020-11-02T13:06:56Z,42.805,6.029,13.3029,4.60045,2470.171,2020-11-02T15:07:52Z
2020-11-02T13:09:59Z,42.805,6.029,13.3008,4.60050,2470.147,2020-11-02T15:10:55Z
2020-11-02T13:13:02Z,42.805,6.029,13.3016,4.60061,2470.156,2020-11-02T15:13:58Z
2020-11-02T13:16:06Z,42.805,6.029,13.3021,4.60042,2470.133,2020-11-02T15:17:01Z
2020-11-02T13:19:09Z,42.805,6.029,13.3029,4.60053,2470.147,2020-11-02T15:20:04Z
2020-11-02T13:22:12Z,42.805,6.029,13.3020,4.60036,2470.147,2020-11-02T15:23:07Z
2020-11-02T13:25:15Z,42.805,6.029,13.3042,4.60019,2470.156,2020-11-02T15:26:10Z
2020-11-02T13:28:18Z,42.805,6.029,13.3008,4.60051,2470.133,2020-11-02T15:29:14Z
2020-11-02T13:31:21Z,42.805,6.029,13.3019,4.60046,2470.147,2020-11-02T15:32:17Z
2020-11-02T13:34:24Z,42.805,6.029,13.3011,4.60057,2470.11,2020-11-02T15:35:20Z
2020-11-02T13:37:27Z,42.805,6.029,13.3011,4.60044,2470.18,2020-11-02T15:38:23Z
2020-11-02T13:40:31Z,42.805,6.029,13.3004,4.60040,2470.147,2020-11-02T15:41:26Z
2020-11-02T13:43:34Z,42.805,6.029,13.3035,4.60049,2470.11,2020-11-02T15:44:29Z
2020-11-02T13:46:37Z,42.805,6.029,13.3036,4.60013,2470.11,2020-11-02T15:47:32Z
2020-11-02T13:49:40Z,42.805,6.029,13.3014,4.60031,2470.124,2020-11-02T15:50:35Z
2020-11-02T13:52:43Z,42.805,6.029,13.3014,4.60026,2470.133,2020-11-02T15:53:39Z
2020-11-02T13:55:46Z,42.805,6.029,13.3019,4.60028,2470.156,2020-11-02T15:56:42Z
2020-11-02T13:58:49Z,42.805,6.029,13.3021,4.60014,2470.124,2020-11-02T15:59:45Z
2020-11-02T14:01:52Z,42.805,6.029,13.3011,4.59994,2470.11,2020-11-02T16:02:48Z
2020-11-02T14:04:55Z,42.805,6.029,13.3019,4.60005,2470.147,2020-11-02T16:05:51Z
2020-11-02T14:07:59Z,42.805,6.029,13.3007,4.60013,2470.156,2020-11-02T16:08:54Z
2020-11-02T14:11:02Z,42.805,6.029,13.3004,4.60003,2470.156,2020-11-02T16:11:57Z
2020-11-02T14:14:05Z,42.805,6.029,13.3005,4.60025,2470.11,2020-11-02T16:15:00Z
2020-11-02T14:17:08Z,42.805,6.029,13.3010,4.60036,2470.11,2020-11-02T16:18:03Z
2020-11-02T14:20:11Z,42.805,6.029,13.3028,4.60023,2470.147,2020-11-02T16:21:07Z
2020-11-02T14:23:14Z,42.805,6.029,13.3031,4.60035,2470.133,2020-11-02T16:24:10Z
2020-11-02T14:26:17Z,42.805,6.029,13.3024,4.60004,2470.11,2020-11-02T16:27:13Z
2020-11-02T14:29:20Z,42.805,6.029,13.3000,4.59996,2470.11,2020-11-02T16:30:16Z
2020-11-02T14:32:24Z,42.805,6.029,13.2998,4.60003,2470.156,2020-11-02T16:33:19Z
2020-11-02T14:35:27Z,42.805,6.029,13.2993,4.60041,2470.133,2020-11-02T16:36:22Z
2020-11-02T14:38:30Z,42.805,6.029,13.2997,4.60043,2470.147,2020-11-02T16:39:25Z
2020-11-02T14:41:33Z,42.805,6.029,13.3039,4.60072,2470.147,2020-11-02T16:42:28Z
2020-11-02T14:44:36Z,42.805,6.029,13.3021,4.60072,2470.11,2020-11-02T16:45:32Z
2020-11-02T14:47:39Z,42.805,6.029,13.3034,4.60072,2470.11,2020-11-02T16:48:35Z
2020-11-02T14:50:42Z,42.805,6.029,13.3001,4.60032,2470.11,2020-11-02T16:51:38Z
2020-11-02T14:53:45Z,42.805,6.029,13.3005,4.60045,2470.147,2020-11-02T16:54:41Z
2020-11-02T14:56:49Z,42.805,6.029,13.3030,4.60051,2470.147,2020-11-02T16:57:44Z
2020-11-02T14:59:52Z,42.805,6.029,13.3001,4.60058,2470.147,2020-11-02T17:00:47Z
2020-11-02T15:02:55Z,42.805,6.029,13.3018,4.60073,2470.171,2020-11-02T17:03:50Z